| time (UTC) | temp F | wind direction | speed MPH | gust MPH | rain 1hr in | rain 24hr in | rain mn in | humidity % | barometer mb |
| 20260505175558 | 53 | 129 | 5.0 | 5.0 | 0.00 | 0.00 | 0.00 | 85 | 1009.3 |
| 20260505174558 | 53 | 134 | 3.0 | 4.0 | 0.00 | 0.00 | 0.00 | 84 | 1009.2 |
| 20260505113530 | 59 | 67 | 2.0 | 4.0 | 0.00 | 0.00 | 0.00 | 75 | 1008.3 |
| 20260505112530 | 57 | 341 | 2.0 | 4.0 | 0.00 | 0.00 | 0.00 | 76 | 1008.4 |
| 20260505111529 | 56 | 346 | 4.0 | 5.0 | 0.00 | 0.00 | 0.00 | 78 | 1008.7 |
| 20260505110530 | 56 | 352 | 2.0 | 3.0 | 0.00 | 0.00 | 0.00 | 77 | 1008.7 |
| 20260505101526 | 55 | 98 | 3.0 | 4.0 | 0.00 | 0.00 | 0.00 | 79 | 1008.7 |
| 20260505100526 | 54 | 85 | 2.0 | 2.0 | 0.00 | 0.00 | 0.00 | 80 | 1008.9 |
| 20260505095523 | 54 | 227 | 1.0 | 3.0 | 0.00 | 0.00 | 0.00 | 79 | 1009.0 |
| 20260505094522 | 54 | 82 | 3.0 | 3.0 | 0.00 | 0.00 | 0.00 | 82 | 1008.9 |
| 20260505093523 | 53 | 25 | 1.0 | 3.0 | 0.00 | 0.00 | 0.00 | 80 | 1009.1 |
| 20260505092522 | 54 | 59 | 3.0 | 4.0 | 0.00 | 0.00 | 0.00 | 79 | 1009.0 |
| 20260505091522 | 53 | 39 | 0.0 | 3.0 | 0.00 | 0.00 | 0.00 | 81 | 1009.1 |
| 20260505090518 | 53 | 18 | 2.0 | 3.0 | 0.00 | 0.00 | 0.00 | 80 | 1009.1 |
| 20260505085518 | 54 | 66 | 1.0 | 3.0 | 0.00 | 0.00 | 0.00 | 80 | 1009.1 |
| 20260505084518 | 53 | 80 | 0.0 | 3.0 | 0.00 | 0.00 | 0.00 | 81 | 1009.0 |
| 20260505083518 | 53 | 105 | 3.0 | 4.0 | 0.00 | 0.00 | 0.00 | 81 | 1009.3 |
| 20260505082518 | 53 | 105 | 4.0 | 4.0 | 0.00 | 0.00 | 0.00 | 83 | 1009.3 |
| 20260505081515 | 53 | 107 | 4.0 | 5.0 | 0.00 | 0.00 | 0.00 | 83 | 1009.3 |
| 20260505080516 | 53 | 53 | 2.0 | 3.0 | 0.00 | 0.00 | 0.00 | 86 | 1009.6 |
| 20260505075515 | 52 | 45 | 1.0 | 3.0 | 0.00 | 0.00 | 0.00 | 86 | 1009.4 |
| 20260505074515 | 52 | 62 | 3.0 | 3.0 | 0.00 | 0.00 | 0.00 | 86 | 1009.5 |
| 20260505073515 | 52 | 9 | 2.0 | 3.0 | 0.00 | 0.00 | 0.00 | 88 | 1009.6 |
| 20260505072512 | 51 | 125 | 2.0 | 3.0 | 0.00 | 0.00 | 0.00 | 88 | 1009.6 |
| 20260505071512 | 51 | 277 | 0.0 | 2.0 | 0.00 | 0.00 | 0.00 | 89 | 1009.8 |
| 20260505070512 | 51 | 95 | 2.0 | 3.0 | 0.00 | 0.00 | 0.00 | 90 | 1009.8 |
| 20260505065512 | 51 | 36 | 2.0 | 6.0 | 0.00 | 0.00 | 0.00 | 90 | 1009.8 |
| 20260505064512 | 51 | 250 | 1.0 | 3.0 | 0.00 | 0.00 | 0.00 | 90 | 1009.9 |
| 20260505063509 | 51 | 273 | 1.0 | 5.0 | 0.00 | 0.00 | 0.00 | 91 | 1009.6 |
| 20260505062510 | 51 | 100 | 5.0 | 5.0 | 0.00 | 0.00 | 0.00 | 91 | 1009.7 |
| 20260505061509 | 51 | 89 | 2.0 | 5.0 | 0.00 | 0.00 | 0.00 | 91 | 1009.7 |
| 20260505060509 | 50 | 47 | 3.0 | 5.0 | 0.00 | 0.00 | 0.00 | 91 | 1009.7 |
| 20260505055509 | 50 | 96 | 2.0 | 5.0 | 0.00 | 0.00 | 0.00 | 92 | 1009.8 |
| 20260505054505 | 49 | 101 | 3.0 | 6.0 | 0.00 | 0.00 | 0.00 | 94 | 1009.6 |
| 20260505053505 | 48 | 93 | 3.0 | 5.0 | 0.00 | 0.00 | 0.00 | 94 | 1009.7 |
| 20260505052506 | 48 | 60 | 3.0 | 5.0 | 0.00 | 0.00 | 0.00 | 95 | 1009.4 |
| 20260505051505 | 47 | 94 | 4.0 | 6.0 | 0.00 | 0.00 | 0.00 | 95 | 1009.4 |
| 20260505050505 | 47 | 99 | 5.0 | 6.0 | 0.00 | 0.00 | 0.00 | 95 | 1009.6 |
| 20260505041501 | 45 | 99 | 6.0 | 8.0 | 0.00 | 0.00 | 0.00 | 96 | 1009.5 |
| 20260505040459 | 45 | 83 | 3.0 | 5.0 | 0.00 | 0.00 | 0.00 | 95 | 1009.9 |
| 20260505035459 | 45 | 69 | 4.0 | 5.0 | 0.00 | 0.00 | 0.00 | 96 | 1009.7 |
| 20260505034459 | 44 | 107 | 5.0 | 6.0 | 0.00 | 0.00 | 0.00 | 95 | 1009.8 |
| 20260505033459 | 45 | 96 | 6.0 | 7.0 | 0.00 | 0.00 | 0.00 | 94 | 1009.9 |
| 20260505032459 | 45 | 101 | 4.0 | 7.0 | 0.00 | 0.00 | 0.00 | 95 | 1009.7 |
| 20260505031455 | 46 | 94 | 5.0 | 6.0 | 0.00 | 0.00 | 0.00 | 95 | 1010.1 |
| 20260505030455 | 45 | 103 | 5.0 | 8.0 | 0.00 | 0.00 | 0.00 | 95 | 1010.1 |
| 20260505025455 | 45 | 132 | 4.0 | 7.0 | 0.00 | 0.00 | 0.00 | 94 | 1010.1 |
| 20260505024454 | 45 | 108 | 6.0 | 7.0 | 0.00 | 0.00 | 0.00 | 94 | 1010.2 |